Location: Ernez
(36.4595°N, 29.8755°E)
Time: 08:42:20
(UTC+00:00)

ISS - Pass Details

Date: 13 November 2025
Orbit: 416 x 421 km, 51.6° (Epoch: 04 December)

Event Time Altitude Azimuth Distance (km) Brightness Sun altitude
Rises 17:05:06 0° 264° (W) 2,360 1.4 -26.6°
Reaches altitude 10° 17:07:36 10° 282° (WNW) 1,497 0.0 -27.1°
Enters shadow 17:09:06 17° 306° (NW) 1,138 -1.1 -27.4°
